CST,Max TemperatureF,Mean TemperatureF,Min TemperatureF,Max Dew PointF,MeanDew PointF,Min DewpointF,Max Humidity, Mean Humidity, Min Humidity, Max Sea Level PressureIn, Mean Sea Level PressureIn, Min Sea Level PressureIn, Max VisibilityMiles, Mean VisibilityMiles, Min VisibilityMiles, Max Wind SpeedMPH, Mean Wind SpeedMPH, Max Gust SpeedMPH,PrecipitationIn, CloudCover, Events, WindDirDegrees
2012-12-1,69,53,36,57,49,36,100,83,66,29.98,29.87,29.77,9,3,0,15,6,20,0.00,5,Fog,148
2012-12-2,68,51,33,51,40,33,100,73,45,30.05,29.96,29.83,10,3,0,10,4,12,0.00,1,Fog,137
2012-12-3,74,61,48,59,50,34,93,70,46,30.05,29.82,29.70,10,10,7,33,15,40,0.00,3,,241
2012-12-4,63,45,27,35,27,22,85,53,21,30.33,30.25,30.08,10,9,6,10,3,12,0.00,0,,302
2012-12-5,63,43,23,32,26,20,88,56,23,30.34,30.21,30.02,10,10,6,22,6,26,0.00,0,,150
2012-12-6,53,45,37,41,37,30,71,65,58,30.00,29.93,29.87,10,10,7,12,5,13,0.00,3,,96
2012-12-7,50,45,40,43,40,38,89,82,74,29.96,29.91,29.86,10,7,4,9,4,13,T,8,,18
2012-12-8,47,38,28,39,34,27,100,80,60,30.02,29.96,29.88,7,3,0,13,6,16,T,6,Fog,30
2012-12-9,45,34,23,40,30,10,93,70,47,30.13,29.95,29.83,10,6,1,26,13,33,0.02,6,Rain,323
2012-12-10,31,22,13,13,8,3,68,50,32,30.17,30.10,30.05,10,10,10,26,10,32,0.00,4,,285
2012-12-11,47,29,11,18,12,6,76,54,31,30.17,30.11,30.05,10,10,10,10,4,13,0.00,0,,232
2012-12-12,52,36,19,20,13,10,73,46,19,30.22,30.16,30.12,10,10,9,28,11,33,0.00,0,,151
2012-12-13,57,43,29,21,18,13,63,44,24,30.15,30.11,30.07,10,10,8,23,10,30,0.00,0,,175
2012-12-14,54,42,29,43,33,21,80,59,38,30.10,29.88,29.67,10,9,2,25,11,35,0.37,6,Rain-Thunderstorm,150
2012-12-15,54,43,32,46,42,32,100,86,71,29.75,29.62,29.48,10,9,2,22,12,30,0.10,6,Rain,240
2012-12-16,38,33,28,34,31,26,100,93,85,29.82,29.76,29.71,4,2,0,12,6,14,0.00,5,Fog,341
2012-12-17,48,39,30,35,31,28,92,74,56,29.81,29.76,29.68,9,5,2,13,6,16,0.00,4,,281
2012-12-18,59,45,30,33,31,27,85,61,36,29.89,29.75,29.62,10,10,9,18,7,23,0.00,0,,268
2012-12-19,44,38,31,38,34,29,92,77,62,29.90,29.68,29.48,10,7,3,23,11,29,0.12,5,Rain-Thunderstorm,69
2012-12-20,37,28,19,34,22,12,89,76,62,30.30,29.86,29.46,10,4,0,40,21,53,0.05,5,Fog-Rain-Snow,316
2012-12-21,38,25,11,23,16,9,88,68,48,30.41,30.33,30.26,10,10,10,9,4,9,0.00,0,,81
2012-12-22,52,37,21,32,22,15,85,60,35,30.24,30.05,29.95,10,10,10,13,5,17,0.00,0,,189
2012-12-23,38,29,19,25,21,17,91,75,59,30.04,29.99,29.94,10,5,2,12,7,14,0.00,0,,333
2012-12-24,26,22,18,18,13,12,88,72,55,30.19,30.12,30.01,10,8,4,18,11,22,0.00,1,,353
2012-12-25,24,19,14,14,10,6,77,65,52,30.35,30.28,30.19,10,10,5,21,14,26,0.00,6,,19
2012-12-26,30,19,7,14,9,4,83,67,50,30.32,30.27,30.21,10,10,10,14,6,17,0.00,0,,335
2012-12-27,39,27,14,25,19,11,80,64,48,30.19,30.05,29.95,10,10,8,16,7,21,0.00,4,,117
2012-12-28,32,27,21,25,20,14,78,70,62,30.14,30.02,29.97,10,6,2,20,8,24,T,8,Snow,313
2012-12-29,38,27,15,17,14,12,88,64,40,30.35,30.28,30.14,10,8,6,21,8,24,0.00,3,,305
2012-12-30,48,31,14,23,18,11,80,57,34,30.35,30.24,30.14,10,10,10,26,12,32,0.00,0,,171
2012-12-31,38,31,23,31,25,19,92,70,48,30.22,30.12,30.05,10,3,0,14,6,20,0.11,7,Fog-Snow,18